When you browse on this site, cookies collect data to enhance your experience and personalize the content and advertising you see.
Visit our Privacy Policy to learn more. By continuing to use the site, you agree to this use of cookies and data.
  • Em Portugal
  • Lista de países
  • Para 7 dias
  • Temperatura da água
  • Mapa do tempo
  • Widgets de tempo
  • user-avatar
    Iniciar Sessão

    Previsão horária em Idjevan

    Hoje, 29 Maio, Sexta-feira

    Tempo Temperatura Precipitação Vento Pressão Humidade
    00:00 +21°C° 0 mm 1 m/s 693 mmHg 78%
    01:00 +20°C° 0 mm 1 m/s 693 mmHg 79%
    02:00 +20°C° 0 mm 1 m/s 692 mmHg 80%
    03:00 +19°C° 0 mm 1 m/s 692 mmHg 80%
    04:00 +20°C° 0 mm 1 m/s 692 mmHg 80%
    05:00 +21°C° 0 mm 1 m/s 692 mmHg 79%
    06:00 +21°C° 0 mm 1 m/s 692 mmHg 78%
    07:00 +23°C° 0 mm 1 m/s 692 mmHg 73%
    08:00 +25°C° 0 mm 1 m/s 692 mmHg 67%
    09:00 +27°C° 0 mm 2 m/s 691 mmHg 62%
    10:00 +28°C° 0.1 mm 2 m/s 691 mmHg 61%
    11:00 +28°C° 0.1 mm 2 m/s 691 mmHg 61%
    12:00 +29°C° 0.1 mm 2 m/s 690 mmHg 60%
    13:00 +28°C° 0.9 mm 2 m/s 689 mmHg 64%
    14:00 +27°C° 0.9 mm 2 m/s 689 mmHg 68%
    15:00 +26°C° 0.9 mm 2 m/s 688 mmHg 71%
    16:00 +25°C° 1 mm 2 m/s 688 mmHg 76%
    17:00 +24°C° 1 mm 2 m/s 688 mmHg 81%
    18:00 +23°C° 1 mm 1 m/s 689 mmHg 85%
    19:00 +21°C° 0.2 mm 1 m/s 689 mmHg 88%
    20:00 +20°C° 0.2 mm 1 m/s 689 mmHg 91%
    21:00 +19°C° 0.2 mm 1 m/s 690 mmHg 94%
    22:00 +19°C° 0 mm 1 m/s 690 mmHg 91%
    23:00 +18°C° 0 mm 1 m/s 689 mmHg 88%

    Amanhã, 30 Maio, Sábado

    Tempo Temperatura Precipitação Vento Pressão Humidade
    00:00 +17°C° 0 mm 2 m/s 689 mmHg 86%
    01:00 +17°C° 0 mm 2 m/s 689 mmHg 84%
    02:00 +16°C° 0 mm 2 m/s 689 mmHg 82%
    03:00 +16°C° 0 mm 2 m/s 689 mmHg 80%
    04:00 +17°C° 0 mm 2 m/s 690 mmHg 80%
    05:00 +18°C° 0 mm 1 m/s 690 mmHg 80%
    06:00 +19°C° 0 mm 1 m/s 690 mmHg 80%
    07:00 +21°C° 0 mm 1 m/s 691 mmHg 73%
    08:00 +22°C° 0 mm 1 m/s 691 mmHg 66%
    09:00 +24°C° 0 mm 1 m/s 691 mmHg 59%
    10:00 +25°C° 0 mm 2 m/s 691 mmHg 57%
    11:00 +26°C° 0 mm 2 m/s 691 mmHg 55%
    12:00 +27°C° 0 mm 2 m/s 691 mmHg 53%
    13:00 +27°C° 0.2 mm 2 m/s 691 mmHg 55%
    14:00 +27°C° 0.2 mm 2 m/s 691 mmHg 57%
    15:00 +27°C° 0.2 mm 2 m/s 690 mmHg 59%
    16:00 +26°C° 0.3 mm 2 m/s 690 mmHg 65%
    17:00 +25°C° 0.3 mm 2 m/s 690 mmHg 71%
    18:00 +24°C° 0.3 mm 1 m/s 690 mmHg 77%
    19:00 +22°C° 0.1 mm 1 m/s 691 mmHg 79%
    20:00 +21°C° 0.1 mm 1 m/s 691 mmHg 82%
    21:00 +19°C° 0.1 mm 1 m/s 691 mmHg 84%
    22:00 +18°C° 0 mm 1 m/s 691 mmHg 84%
    23:00 +18°C° 0 mm 1 m/s 692 mmHg 83%

    Depois de amanhã, 31 Maio, Domingo

    Tempo Temperatura Precipitação Vento Pressão Humidade
    00:00 +16°C° 0 mm 1 m/s 692 mmHg 83%
    01:00 +16°C° 0 mm 1 m/s 692 mmHg 84%
    02:00 +14°C° 0 mm 0 m/s 692 mmHg 85%
    03:00 +14°C° 0 mm 0 m/s 692 mmHg 87%
    04:00 +14°C° 0 mm 0 m/s 692 mmHg 87%
    05:00 +15°C° 0 mm 0 m/s 693 mmHg 86%
    06:00 +15°C° 0 mm 0 m/s 693 mmHg 86%
    07:00 +19°C° 0 mm 1 m/s 693 mmHg 84%
    08:00 +20°C° 0 mm 1 m/s 693 mmHg 82%
    09:00 +21°C° 0 mm 1 m/s 693 mmHg 80%
    10:00 +21°C° 0 mm 2 m/s 693 mmHg 77%
    11:00 +21°C° 0 mm 2 m/s 693 mmHg 74%
    12:00 +23°C° 0 mm 2 m/s 693 mmHg 71%
    13:00 +24°C° 0.1 mm 2 m/s 693 mmHg 70%
    14:00 +24°C° 0.1 mm 2 m/s 692 mmHg 69%
    15:00 +24°C° 0.1 mm 2 m/s 692 mmHg 69%
    16:00 +24°C° 0.1 mm 1 m/s 692 mmHg 71%
    17:00 +24°C° 0.1 mm 1 m/s 692 mmHg 73%
    18:00 +23°C° 0.1 mm 1 m/s 692 mmHg 75%
    19:00 +22°C° 0.1 mm 1 m/s 692 mmHg 78%
    20:00 +20°C° 0.1 mm 1 m/s 692 mmHg 81%
    21:00 +18°C° 0.1 mm 1 m/s 692 mmHg 84%
    22:00 +18°C° 0 mm 1 m/s 692 mmHg 83%
    23:00 +18°C° 0 mm 1 m/s 692 mmHg 83%

    1 Junho, Segunda-feira

    Tempo Temperatura Precipitação Vento Pressão Humidade
    00:00 +16°C° 0 mm 1 m/s 692 mmHg 82%
    01:00 +16°C° 0 mm 1 m/s 691 mmHg 83%
    02:00 +16°C° 0 mm 1 m/s 691 mmHg 84%
    03:00 +14°C° 0 mm 0 m/s 691 mmHg 86%
    04:00 +15°C° 0 mm 0 m/s 691 mmHg 85%
    05:00 +16°C° 0 mm 0 m/s 691 mmHg 85%
    06:00 +16°C° 0 mm 0 m/s 692 mmHg 85%
    07:00 +20°C° 0 mm 1 m/s 692 mmHg 83%
    08:00 +21°C° 0 mm 1 m/s 691 mmHg 80%
    09:00 +21°C° 0 mm 2 m/s 691 mmHg 78%
    10:00 +21°C° 0.1 mm 2 m/s 691 mmHg 77%
    11:00 +23°C° 0.1 mm 2 m/s 691 mmHg 77%
    12:00 +23°C° 0.1 mm 2 m/s 691 mmHg 76%
    13:00 +24°C° 0.2 mm 2 m/s 690 mmHg 73%
    14:00 +25°C° 0.2 mm 2 m/s 690 mmHg 70%
    15:00 +26°C° 0.2 mm 2 m/s 690 mmHg 67%
    16:00 +25°C° 0.3 mm 2 m/s 690 mmHg 70%
    17:00 +25°C° 0.3 mm 1 m/s 689 mmHg 74%
    18:00 +24°C° 0.3 mm 1 m/s 689 mmHg 77%
    19:00 +22°C° 0 mm 1 m/s 689 mmHg 76%
    20:00 +20°C° 0 mm 2 m/s 689 mmHg 76%
    21:00 +18°C° 0 mm 2 m/s 689 mmHg 75%
    22:00 +18°C° 0 mm 2 m/s 689 mmHg 70%
    23:00 +17°C° 0 mm 2 m/s 689 mmHg 65%

    2 Junho, Terça-feira

    Tempo Temperatura Precipitação Vento Pressão Humidade
    00:00 +17°C° 0 mm 2 m/s 689 mmHg 60%
    01:00 +17°C° 0 mm 2 m/s 689 mmHg 59%
    02:00 +16°C° 0 mm 2 m/s 689 mmHg 58%
    03:00 +16°C° 0 mm 2 m/s 688 mmHg 57%
    04:00 +17°C° 0 mm 2 m/s 688 mmHg 60%
    05:00 +17°C° 0 mm 2 m/s 688 mmHg 64%
    06:00 +18°C° 0 mm 2 m/s 688 mmHg 67%
    07:00 +20°C° 0 mm 2 m/s 688 mmHg 62%
    08:00 +23°C° 0 mm 2 m/s 688 mmHg 57%
    09:00 +26°C° 0 mm 2 m/s 689 mmHg 52%
    10:00 +26°C° 0 mm 3 m/s 688 mmHg 50%
    11:00 +27°C° 0 mm 4 m/s 688 mmHg 48%
    12:00 +28°C° 0 mm 4 m/s 688 mmHg 47%
    13:00 +28°C° 0.1 mm 4 m/s 688 mmHg 46%
    14:00 +28°C° 0.1 mm 4 m/s 688 mmHg 46%
    15:00 +28°C° 0.1 mm 3 m/s 688 mmHg 46%
    16:00 +27°C° 0 mm 3 m/s 688 mmHg 52%
    17:00 +26°C° 0 mm 2 m/s 688 mmHg 58%
    18:00 +24°C° 0 mm 2 m/s 688 mmHg 64%
    19:00 +21°C° 0 mm 2 m/s 688 mmHg 66%
    20:00 +19°C° 0 mm 2 m/s 689 mmHg 67%
    21:00 +17°C° 0 mm 2 m/s 689 mmHg 69%
    22:00 +17°C° 0 mm 2 m/s 690 mmHg 67%
    23:00 +16°C° 0 mm 2 m/s 690 mmHg 65%

    3 Junho, Quarta-feira

    Tempo Temperatura Precipitação Vento Pressão Humidade
    00:00 +16°C° 0 mm 2 m/s 690 mmHg 63%
    01:00 +16°C° 0 mm 2 m/s 690 mmHg 61%
    02:00 +16°C° 0 mm 2 m/s 690 mmHg 60%
    03:00 +16°C° 0 mm 2 m/s 690 mmHg 58%
    04:00 +16°C° 0 mm 2 m/s 691 mmHg 61%
    05:00 +17°C° 0 mm 2 m/s 691 mmHg 64%
    06:00 +17°C° 0 mm 2 m/s 691 mmHg 67%
    07:00 +19°C° 0 mm 2 m/s 691 mmHg 61%
    08:00 +21°C° 0 mm 2 m/s 691 mmHg 55%
    09:00 +24°C° 0 mm 2 m/s 691 mmHg 50%
    10:00 +25°C° 0 mm 2 m/s 692 mmHg 50%
    11:00 +26°C° 0 mm 2 m/s 692 mmHg 50%
    12:00 +27°C° 0 mm 2 m/s 692 mmHg 51%
    13:00 +27°C° 0.4 mm 2 m/s 692 mmHg 54%
    14:00 +26°C° 0.4 mm 2 m/s 692 mmHg 58%
    15:00 +26°C° 0.4 mm 1 m/s 691 mmHg 62%
    16:00 +25°C° 0.4 mm 1 m/s 691 mmHg 67%
    17:00 +24°C° 0.4 mm 1 m/s 691 mmHg 72%
    18:00 +23°C° 0.4 mm 1 m/s 691 mmHg 78%
    19:00 +22°C° 0.1 mm 1 m/s 691 mmHg 80%
    20:00 +20°C° 0.1 mm 1 m/s 692 mmHg 83%
    21:00 +18°C° 0.1 mm 2 m/s 692 mmHg 86%
    22:00 +18°C° 0 mm 1 m/s 692 mmHg 84%
    23:00 +18°C° 0 mm 1 m/s 691 mmHg 81%
    Mostrar mais